Theta_e
296 296 296 295 295 295 295 295 294 294 294 294 293 293 293 293 292 293 292 291 290 289 288 287 287 287 287 287 287 287 287 287 287 287 286 286 285 285 284 284 284 284
296 296 295 295 295 295 295 295 295 294 294 294 294 293 293 292 292 292 292 292 290 289 288 287 287 286 287 287 287 287 287 287 287 286 286 285 285 284 284 284 283 283
296 295 295 295 295 295 295 294 294 294 294 294 293 293 292 292 292 292 292 291 291 289 288 287 287 286 286 286 286 287 287 287 286 286 285 285 284 284 284 283 283 283
295 295 295 296 295 295 295 294 294 294 293 293 293 292 292 292 292 291 291 291 290 289 288 287 287 286 286 286 286 286 286 286 286 285 285 284 284 283 283 283 283 283
295 295 295 295 295 294 294 294 294 293 293 293 292 292 291 291 291 291 291 290 289 289 288 287 287 286 286 286 286 286 286 286 285 285 285 284 283 283 283 283 283 283
295 295 295 295 294 294 293 293 293 293 292 292 292 291 291 291 291 290 290 290 289 288 288 287 287 286 285 285 285 285 285 285 285 285 284 284 283 283 283 283 283 283
295 295 295 294 294 293 293 293 293 293 292 292 291 291 291 290 290 290 290 290 289 288 288 287 287 286 286 285 285 285 285 285 285 284 284 283 283 283 282 282 282 282
295 295 294 294 293 293 293 293 293 292 292 291 291 291 291 290 290 290 289 289 289 288 287 287 287 286 286 285 285 285 285 284 285 284 283 283 283 283 282 282 282 282
294 294 294 293 293 293 293 293 292 292 292 291 290 290 290 290 290 289 289 289 288 288 287 286 286 286 285 285 285 285 284 284 284 284 283 283 283 283 283 282 282 282
293 293 293 293 292 292 293 292 292 292 291 291 290 290 290 289 289 289 289 289 288 288 287 286 286 286 285 285 285 285 285 285 284 284 283 283 283 283 282 282 282 282
293 293 292 292 292 292 292 292 292 291 291 290 290 290 290 289 289 288 288 288 288 288 287 287 286 285 285 284 284 284 285 284 284 284 283 283 283 283 282 282 282 282
293 292 292 293 292 292 292 292 291 291 290 290 290 289 289 288 288 288 288 288 288 288 288 287 287 286 285 284 284 284 284 284 284 283 283 283 282 282 282 282 282 282
293 293 293 293 293 292 292 291 291 290 290 289 289 289 288 288 288 288 288 288 288 287 287 287 287 286 285 284 284 284 283 283 283 283 283 282 282 282 282 282 282 282
293 293 293 293 292 292 291 291 290 290 289 289 289 288 288 288 288 287 287 287 287 287 287 286 286 285 284 284 284 283 283 282 282 282 282 282 281 281 281 281 281 281
293 293 293 292 292 291 291 290 290 290 289 289 288 288 288 287 287 287 286 286 286 286 286 285 285 285 284 284 283 283 282 282 282 282 282 281 281 281 281 281 281 281
293 293 292 291 291 291 290 290 290 289 288 288 288 287 287 287 286 286 286 286 285 285 285 285 284 284 284 284 284 283 282 281 281 281 281 281 281 280 280 280 280 280
293 292 292 291 291 290 290 289 289 288 288 287 287 287 286 286 286 286 286 286 285 285 284 284 284 283 284 284 283 282 282 281 281 281 281 281 281 280 280 280 279 279
293 292 291 291 290 290 289 289 288 288 287 287 286 286 286 285 285 285 285 285 285 284 284 283 283 283 283 283 282 282 282 281 281 281 280 280 280 280 280 280 279 278
293 292 291 291 290 289 289 288 287 287 286 286 286 285 285 285 285 285 285 284 284 283 283 283 283 283 283 283 282 282 282 281 281 280 280 280 280 280 279 279 278 278
292 291 291 290 289 289 288 287 287 286 286 285 285 284 284 284 284 284 284 284 283 283 283 283 282 282 282 282 282 282 281 280 280 280 280 280 280 280 279 279 278 277
291 291 290 289 288 288 287 287 286 285 285 285 284 284 284 284 283 283 283 283 283 283 282 282 282 282 282 282 283 282 281 280 280 279 279 279 279 279 278 278 277 277
290 290 289 288 287 287 286 286 285 285 284 284 284 283 283 283 283 283 282 282 282 282 282 281 281 281 282 283 283 283 281 280 279 279 278 278 278 278 277 277 277 276
289 289 288 287 286 286 285 285 284 284 284 283 283 282 282 282 282 282 282 282 281 281 281 280 280 281 282 283 283 283 281 279 278 278 277 277 277 277 276 276 276 276
289 288 287 287 286 285 284 284 284 283 283 283 282 282 282 282 281 281 281 281 281 281 281 280 280 281 282 283 284 283 281 279 278 277 277 276 276 276 276 276 276 276
288 287 287 286 285 284 284 284 283 283 282 282 282 282 281 281 281 280 280 280 280 280 280 280 280 280 282 284 284 283 281 279 278 276 276 275 275 276 275 275 275 275
287 287 286 286 285 284 283 283 283 282 282 281 281 281 281 280 280 280 279 279 279 279 279 279 280 280 282 284 284 283 281 279 277 276 276 276 275 276 275 275 275 275
Wind_Speed
39 39 39 39 39 40 40 40 41 41 42 43 44 45 45 45 45 46 46 45 44 43 41 39 37 34 32 31 29 28 27 25 23 22 20 19 18 17 17 17 16 15
40 39 39 39 40 41 41 42 42 42 43 43 44 43 42 43 43 45 46 46 45 44 42 40 38 36 34 33 31 30 29 27 25 24 22 21 20 19 18 18 18 17
41 41 42 43 43 43 42 41 41 42 42 42 42 42 41 42 42 43 45 46 46 45 43 42 40 38 36 34 33 32 31 30 28 26 24 23 21 20 19 19 19 18
44 44 45 46 45 44 42 41 41 42 42 41 42 41 41 41 41 42 43 45 46 45 44 43 42 40 38 36 35 34 33 31 29 27 26 24 22 21 20 20 20 19
45 45 45 46 44 42 41 42 43 43 42 42 41 41 40 40 41 42 42 44 45 45 44 43 42 41 39 38 37 36 34 32 31 29 27 26 24 23 22 22 21 20
42 44 45 44 42 40 40 42 43 42 42 42 41 40 40 40 41 42 43 43 44 44 45 44 43 42 40 39 38 37 36 34 33 31 29 28 26 24 23 23 22 22
43 45 45 43 41 40 41 41 41 41 41 41 40 40 40 40 41 42 43 43 43 44 45 45 45 44 42 41 40 38 37 36 34 33 31 29 27 26 25 24 24 23
45 45 44 43 42 42 42 42 42 42 41 40 40 40 41 41 42 42 42 43 43 43 44 45 45 45 44 43 42 41 39 37 36 34 32 30 29 28 27 26 25 24
42 41 41 41 43 43 44 44 44 43 42 41 41 40 40 41 42 42 42 42 42 43 43 44 44 45 45 45 44 43 41 40 38 36 34 33 32 31 29 28 27 25
40 39 38 39 41 43 45 46 45 43 43 42 41 41 41 41 41 42 42 42 43 43 43 43 44 45 45 45 45 44 43 41 39 37 36 34 33 32 30 29 28 26
40 39 39 41 43 45 46 46 45 43 43 42 42 42 42 42 41 42 42 43 44 45 44 44 44 45 45 45 44 44 43 42 40 38 37 35 33 31 30 29 28 27
40 40 42 44 47 48 47 46 44 43 42 42 43 43 43 42 43 43 44 45 46 46 46 46 46 46 47 46 45 44 42 41 40 38 36 35 33 31 30 29 28 27
42 43 45 48 49 49 46 44 43 42 42 43 43 43 43 44 44 45 46 46 47 46 46 47 47 47 47 47 46 45 43 42 40 38 36 35 33 31 29 28 28 27
43 45 47 48 47 44 42 41 42 42 43 43 43 43 44 45 45 45 44 44 45 45 45 45 46 46 47 47 46 45 43 42 40 39 37 35 33 31 30 29 28 27
43 44 45 44 41 40 41 42 42 43 43 43 43 44 44 43 43 43 42 42 42 42 43 44 45 46 47 47 47 45 43 42 40 39 38 36 34 32 31 30 29 28
39 39 38 37 38 40 41 42 42 41 42 42 43 42 42 41 41 42 42 42 42 42 42 43 44 45 46 48 48 47 45 42 40 39 38 37 36 34 32 31 29 28
35 34 34 35 38 39 39 40 40 40 41 41 41 40 40 40 41 42 42 43 43 43 43 43 43 44 45 47 47 47 45 43 41 40 38 37 36 35 34 32 30 28
33 33 33 35 36 37 37 38 38 39 39 40 40 40 40 40 42 43 43 42 42 42 42 43 43 44 45 46 46 45 45 43 42 40 39 37 37 36 34 33 30 28
32 31 33 34 34 34 34 34 35 37 38 39 39 39 39 40 41 42 42 41 41 42 42 42 42 43 44 45 45 45 44 43 41 40 39 38 37 36 34 32 31 28
28 29 31 32 31 31 32 33 34 35 36 37 37 37 38 40 40 40 41 41 42 42 41 41 41 42 43 43 42 41 41 42 40 38 38 37 36 36 34 32 31 29
25 26 27 26 27 28 30 32 33 33 34 34 35 37 39 39 39 39 39 40 40 40 40 39 40 42 42 41 38 35 36 39 39 37 36 36 35 34 33 32 30 29
22 22 23 23 24 27 28 30 31 32 32 33 33 34 35 35 36 37 38 39 39 39 39 37 38 40 40 39 37 34 33 36 38 37 36 35 33 33 32 30 29 28
19 20 21 21 23 26 27 28 29 30 31 32 32 32 33 34 35 36 38 39 39 40 39 37 37 38 38 36 36 35 34 37 38 37 35 34 33 32 31 29 28 27
18 18 20 21 23 25 25 26 27 29 30 32 32 32 32 33 34 34 35 38 40 41 41 39 39 40 39 37 36 36 36 39 39 38 35 33 32 30 29 28 27 26
16 17 19 20 22 24 24 25 26 27 28 29 30 31 30 31 32 32 32 35 37 39 40 40 41 42 41 40 38 37 38 40 39 37 35 32 31 30 28 27 26 24
15 16 18 19 20 21 22 23 24 25 26 28 28 28 28 29 30 31 31 32 33 36 37 39 40 41 40 39 38 38 39 41 40 37 35 34 32 31 29 27 26 25
Wind_Direction
208 208 209 209 210 211 211 210 209 209 210 210 212 213 213 213 213 213 214 214 215 215 214 212 210 208 205 204 204 204 204 203 201 200 202 205 205 205 204 203 202 198
209 210 211 211 213 214 214 215 214 213 213 215 215 215 214 214 214 214 214 213 214 214 214 212 210 208 207 204 203 204 204 203 201 201 204 205 205 206 207 205 202 199
211 211 212 213 214 215 215 216 216 217 217 217 217 216 215 215 214 214 214 214 213 213 213 213 211 209 208 206 204 204 204 203 201 202 204 206 207 206 206 205 203 200
213 213 214 215 216 216 216 215 216 218 218 218 217 216 215 214 214 214 214 213 213 212 212 212 211 210 208 207 206 205 205 204 203 203 204 205 207 208 206 205 204 203
215 216 216 218 217 217 216 216 217 218 217 218 217 216 214 213 213 213 213 213 212 212 211 211 211 210 209 207 207 206 205 203 203 203 204 205 206 207 207 207 206 205
217 218 219 220 219 217 218 218 219 218 218 218 216 215 214 213 212 212 212 212 211 211 211 210 210 210 209 208 207 207 206 204 202 203 204 206 206 206 207 208 209 209
219 219 219 220 219 219 220 220 220 220 220 219 216 215 214 212 212 212 212 212 211 211 211 210 210 209 208 208 207 207 206 204 203 202 204 205 205 206 207 209 211 212
221 220 219 219 219 219 220 221 221 221 220 218 217 216 215 213 212 211 211 211 211 211 211 210 210 209 208 207 207 206 205 204 203 202 203 204 204 206 207 209 211 213
223 222 220 219 218 219 220 220 221 220 219 218 216 216 214 214 213 211 210 210 209 210 211 210 210 209 208 208 207 206 204 203 203 203 204 204 205 207 208 209 210 212
223 222 221 220 220 220 221 221 220 219 218 217 215 215 214 213 212 211 209 208 208 209 209 210 210 209 209 208 207 207 206 204 204 204 206 207 208 209 209 210 211 212
222 220 219 220 221 222 222 221 219 217 216 215 213 213 213 211 209 208 207 207 207 208 208 209 210 210 209 208 208 207 207 206 205 205 207 208 210 211 211 212 213 214
222 219 218 220 221 222 222 220 218 216 214 213 212 211 210 209 207 206 206 206 207 207 207 208 210 210 209 209 208 208 207 207 207 206 207 208 210 211 213 214 215 217
223 220 220 221 221 221 220 218 217 215 213 212 211 209 208 207 206 206 207 206 206 206 206 207 208 208 208 208 208 207 207 206 206 205 206 207 209 211 212 215 216 217
225 223 223 223 222 220 217 216 215 214 213 211 209 208 208 207 206 205 204 204 204 204 205 205 205 205 206 206 206 206 205 205 204 203 203 204 206 209 211 213 215 216
230 226 225 223 220 218 216 214 213 212 211 210 208 207 207 207 206 204 202 201 202 203 203 203 203 204 205 205 205 204 203 203 203 202 202 202 202 205 208 210 212 215
235 231 226 222 218 216 215 212 211 210 208 207 207 206 205 204 203 202 202 201 200 201 201 202 203 204 205 206 206 204 202 201 201 201 201 201 201 200 203 206 210 213
239 234 227 222 219 216 214 211 208 207 206 205 203 202 202 201 200 200 201 201 201 200 200 200 202 203 205 207 206 205 202 200 199 199 199 200 200 199 200 203 206 210
238 233 227 223 219 215 213 209 206 203 202 201 200 199 199 198 198 199 199 200 199 199 199 200 202 204 205 206 205 204 204 202 199 198 197 197 199 200 201 201 203 206
238 230 226 223 218 214 210 206 203 201 199 199 198 197 196 196 197 198 197 198 197 197 199 200 201 203 204 204 203 203 204 202 200 198 198 198 199 200 200 201 201 201
239 230 226 223 217 211 206 202 201 200 199 197 195 193 193 194 195 196 196 196 197 197 198 199 200 202 202 202 200 200 201 201 199 198 199 199 199 200 200 200 201 200
240 232 226 222 215 208 203 200 200 199 197 196 193 193 194 194 194 195 194 195 196 196 196 197 199 200 199 198 195 192 195 199 198 197 198 198 199 200 200 201 201 202
243 232 225 219 212 206 202 200 199 197 196 194 193 193 194 194 194 194 193 194 194 195 195 195 198 198 195 194 191 187 189 195 196 196 196 197 198 199 200 202 202 202
248 234 225 218 210 205 203 201 198 197 195 193 191 191 192 193 194 193 193 194 193 194 194 193 194 194 191 190 187 184 186 192 192 192 193 195 197 198 199 201 201 202
259 241 229 219 211 207 205 202 199 197 195 193 191 191 192 193 194 193 193 194 193 194 194 193 192 191 189 188 186 184 188 191 189 188 190 192 193 194 197 199 200 203
271 250 235 224 216 211 207 204 201 197 195 194 193 193 193 193 193 192 193 194 195 195 195 194 194 191 189 188 185 185 190 192 188 186 186 187 189 189 193 197 199 200
281 258 242 230 220 215 208 204 201 197 194 192 192 193 192 191 192 191 192 194 195 196 196 196 195 191 189 189 186 186 190 190 188 186 185 185 186 186 188 193 196 199